This is the latest recevied weather packets stored in our database for station/object EA7URS-13. If no packets are shown the sender has not sent any weather packets the latest 10 day(s).
| Time | Temp. | Humidity | Pressure | Rain* | Wind** | Luminosity | Snow |
|---|---|---|---|---|---|---|---|
| 1787843815 | 26.11° C | 51% | 1009.3 hPa | 0 mm | - | 413 W/m² | - |
| 1787843514 | 25.56° C | 53% | 1009.2 hPa | 0 mm | - | 313 W/m² | - |
| 1787843213 | 25.56° C | 53% | 1009.2 hPa | 0 mm | - | 313 W/m² | - |
| 1787842911 | 25.56° C | 51% | 1009.2 hPa | 0 mm | - | 295 W/m² | - |
| 1787842611 | 25.56° C | 51% | 1009.2 hPa | 0 mm | - | 295 W/m² | - |
| 1787842309 | 25.56° C | 50% | 1009.1 hPa | 0 mm | - | 559 W/m² | - |
| 1787842008 | 25.56° C | 50% | 1009.1 hPa | 0 mm | - | 559 W/m² | - |
| 1787841707 | 25.56° C | 51% | 1009.5 hPa | 0 mm | - | 309 W/m² | - |
| 1787841406 | 25.56° C | 51% | 1009.5 hPa | 0 mm | - | 309 W/m² | - |
| 1787841105 | 25.56° C | 49% | 1009.1 hPa | 0 mm | - | 482 W/m² | - |
| 1787840804 | 25.56° C | 49% | 1009.1 hPa | 0 mm | - | 482 W/m² | - |
| 1787840503 | 26.11° C | 47% | 1009.4 hPa | 0 mm | - | 521 W/m² | - |
| 1787840202 | 26.11° C | 47% | 1009.4 hPa | 0 mm | - | 521 W/m² | - |
| 1787839901 | 26.11° C | 46% | 1009.4 hPa | 0 mm | - | 319 W/m² | - |
| 1787839600 | 26.11° C | 46% | 1009.4 hPa | 0 mm | - | 319 W/m² | - |
| 1787839298 | 25.56° C | 47% | 1009.6 hPa | 0 mm | - | 261 W/m² | - |
| 1787838997 | 25.56° C | 47% | 1009.6 hPa | 0 mm | - | 261 W/m² | - |
| 1787838696 | 25.56° C | 49% | 1009.4 hPa | 0 mm | - | 275 W/m² | - |
| 1787838395 | 25.56° C | 49% | 1009.4 hPa | 0 mm | - | 275 W/m² | - |
| 1787838094 | 25.56° C | 48% | 1009.5 hPa | 0 mm | - | 174 W/m² | - |
| 1787837793 | 25.56° C | 48% | 1009.5 hPa | 0 mm | - | 174 W/m² | - |
| 1787837492 | 25.56° C | 51% | 1009.4 hPa | 0 mm | - | 707 W/m² | - |
| 1787837190 | 25.56° C | 51% | 1009.4 hPa | 0 mm | - | 707 W/m² | - |
| 1787836889 | 25° C | 53% | 1009.4 hPa | 0 mm | - | 217 W/m² | - |
| 1787836588 | 25° C | 53% | 1009.4 hPa | 0 mm | - | 217 W/m² | - |
* Rain latest hour (hover to see other rain measurements)
** Current wind speed in m/s (hover to see current wind gust speed)